Anderson, SC

3:27 AM EST on November 21, 2017 (GMT -0500)
Anderson Regional

Weather History for KAND - March, 2013

Change the Weather History Date:

Monday, March 11, 2013

  Actual Average Record
Temperature  
Mean Temperature 58 °F -  
Max Temperature 66 °F 64 °F 83 °F (1990)
Min Temperature 50 °F 39 °F 19 °F (1998)
Degree Days  
Heating Degree Days 7    
Growing Degree Days 8 (Base 50)    
Moisture  
Dew Point 50 °F    
Average Humidity 79    
Maximum Humidity 100    
Minimum Humidity 56    
Precipitation  
Precipitation 0.65 in - - ()
Sea Level Pressure  
Sea Level Pressure 29.98 in    
Wind  
Wind Speed 6 mph (SE)    
Max Wind Speed 18 mph    
Max Gust Speed 25 mph    
Visibility 9 miles    
Events Rain    
Averages and records for this station are not official NWS values.
T = Trace of Precipitation, MM = Missing Value Source: NWS Daily Summary

Daily Weather History Graph

Daily Weather History Graph

Search for Another Location

Airport or City:

Trip Planner

Search our weather history database for the weather conditions in past years. The results will help you decide how hot, cold, wet, or windy it might be!

Date:

Astronomy

Mar. 11, 2013 Rise Set
Actual Time 7:46 AM EDT 7:35 PM EDT
Civil Twilight 7:21 AM EDT 8:00 PM EDT
Nautical Twilight 6:52 AM EDT 8:29 PM EDT
Astronomical Twilight 6:23 AM EDT 8:59 PM EDT
Moon 7:20 AM EDT (3/11) 7:43 PM EDT (3/11)
Length of Visible Light 12h 39m
Length of Day
11h 49m
Waning Crescent, 0% of the Moon is Illuminated
Mar 11
Waning Crescent
Mar 11
New
Mar 19
First Quarter
Mar 27
Full
Apr 3
Last Quarter

Hourly Weather History & Observations

Time (EDT) Temp. Dew Point Humidity Pressure Visibility Wind Dir Wind Speed Gust Speed Precip Events Conditions
12:56 AM 54.0 °F 45.0 °F 72% 30.14 in 10.0 mi SE 5.8 mph - N/A   Clear
3:56 AM 51.1 °F 46.0 °F 83% 30.11 in 10.0 mi ESE 4.6 mph - N/A   Clear
4:46 AM 51.8 °F 46.4 °F 82% 30.10 in 10.0 mi Calm Calm - N/A   Mostly Cloudy
4:56 AM 50.0 °F 46.9 °F 89% 30.08 in 10.0 mi East 3.5 mph - N/A   Overcast
5:38 AM 50.0 °F 46.4 °F 87% 30.09 in 10.0 mi Calm Calm - N/A   Overcast
5:45 AM 50.0 °F 46.4 °F 87% 30.08 in 10.0 mi Calm Calm - N/A   Overcast
5:56 AM 50.0 °F 46.0 °F 86% 30.07 in 10.0 mi East 3.5 mph - N/A   Overcast
6:17 AM 50.0 °F 46.4 °F 87% 30.08 in 10.0 mi East 3.5 mph - N/A   Overcast
6:56 AM 50.0 °F 46.0 °F 86% 30.09 in 10.0 mi Calm Calm - N/A   Overcast
7:56 AM 50.0 °F 44.1 °F 80% 30.09 in 10.0 mi SE 3.5 mph - N/A   Mostly Cloudy
8:56 AM 51.1 °F 45.0 °F 80% 30.09 in 10.0 mi Calm Calm - N/A   Overcast
9:56 AM 52.0 °F 45.0 °F 77% 30.09 in 10.0 mi SSE 8.1 mph - N/A   Overcast
10:56 AM 55.9 °F 48.0 °F 75% 30.06 in 10.0 mi SSE 11.5 mph - N/A   Overcast
11:56 AM 64.0 °F 50.0 °F 60% 30.03 in 10.0 mi SSE 15.0 mph 20.7 mph N/A   Mostly Cloudy
12:56 PM 64.0 °F 50.0 °F 60% 30.01 in 10.0 mi South 16.1 mph 23.0 mph N/A   Scattered Clouds
1:56 PM 64.0 °F 50.0 °F 60% 29.96 in 10.0 mi South 12.7 mph - N/A   Mostly Cloudy
2:56 PM 66.9 °F 51.1 °F 57% 29.90 in 10.0 mi SSE 18.4 mph - N/A   Scattered Clouds
3:56 PM 66.0 °F 50.0 °F 56% 29.88 in 10.0 mi South 15.0 mph 25.3 mph N/A   Mostly Cloudy
4:56 PM 64.9 °F 51.1 °F 61% 29.85 in 10.0 mi SSE 13.8 mph - N/A   Overcast
5:56 PM 64.9 °F 51.1 °F 61% 29.82 in 10.0 mi SE 9.2 mph 19.6 mph N/A   Overcast
6:56 PM 63.0 °F 53.1 °F 70% 29.85 in 10.0 mi South 9.2 mph - 0.00 in Rain Light Rain
7:56 PM 57.9 °F 55.9 °F 93% 29.85 in 10.0 mi SSE 5.8 mph - 0.09 in Rain Light Rain
8:56 PM 57.0 °F 57.0 °F 100% 29.87 in 4.0 mi WNW 4.6 mph - 0.16 in Rain Rain
9:19 PM 57.2 °F 55.4 °F 94% 29.87 in 4.0 mi Calm Calm - 0.07 in Rain Rain
9:56 PM 57.0 °F 55.9 °F 96% 29.86 in 3.0 mi Calm Calm - 0.21 in Rain Rain
10:56 PM 57.0 °F 57.0 °F 100% 29.84 in 6.0 mi East 4.6 mph - 0.15 in Rain Light Rain
11:56 PM 57.0 °F 57.0 °F 100% 29.82 in 6.0 mi SE 4.6 mph - 0.04 in Rain Rain